[[{"header":{"parameterUnit":"m.s-1","parameterCategory":1,"la1":30.2991,"la2":30.254,"lo1":-89.0895,"lo2":-89.0444,"dy":0.0017,"dx":0.0017,"nx":28,"ny":28,"refTime":"2025-06-01T21:00:00:Z","depth":0,"parameterNumber":2,"parameterNumberName":"U-component_of_WINDS"},"data":[0,0,0,0,0,0,0,0,0,0,0,0,0,0,0,0,0,0,0,0,0,0,0,0,0,0,0,0,0,0,0,0,0,0,0,0,0,0,0,0,0,0,0,0,0,0,0,0,0,0,0,0,0,0,0,0,0,0,0.5618,0.562,0,0.5722,0.5723,0.5725,0.5768,0.5768,0.5768,0.5767,0.5875,0.5878,0.5881,0,0,0,0,0,0,0,0,0,0,0,0,0,0.5458,0.5461,0.5618,0.562,0.5621,0.5722,0.5723,0.5725,0.5768,0.5768,0.5768,0.5767,0.5874,0.5878,0.5881,0,0,0,0,0,0,0,0,0,0,0,0,0,0.5541,0.5462,0.5618,0.5655,0.5659,0.5722,0.5724,0.5725,0.5768,0.5768,0.5768,0.5767,0.5873,0.5877,0.5882,0.5916,0,0,0.5896,0.5898,0,0,0,0,0,0,0,0,0.5537,0.5547,0.5648,0.5652,0.5657,0.5732,0.5706,0.5789,0.5768,0.5727,0.5767,0.5767,0.5828,0.5836,0.5856,0.5921,0.5926,0.5896,0.5899,0.5901,0.5902,0,0,0,0,0,0,0,0.5531,0.5543,0.5659,0.5649,0.5655,0.5666,0.5678,0.5722,0.5778,0.573,0.5734,0.5745,0.583,0.5852,0.5859,0.5927,0.5896,0.59,0.5903,0.5905,0.6026,0.6026,0,0,0,0,0,0,0.5519,0.5538,0.5656,0.5663,0.5595,0.5669,0.5682,0.5708,0.5777,0.5788,0.5746,0.5747,0.5844,0.5854,0.5863,0.5908,0.5901,0.5905,0.5908,0.6025,0.6026,0.6026,0,0,0,0,0,0,0.5515,0.5529,0.5652,0.5601,0.5618,0.5672,0.5701,0.571,0.5732,0.5789,0.5799,0.5757,0.5844,0.5856,0.5902,0.5912,0.5907,0.5911,0.6025,0.6026,0.6026,0.5997,0,0,0,0,0,0,0.551,0.5527,0.5541,0.5601,0.562,0.5689,0.5702,0.5713,0.574,0.5743,0.5802,0.5812,0.5845,0.5895,0.5907,0.5918,0.5915,0.6024,0.6025,0.6026,0.5998,0.5997,0.5997,0,0,0,0,0,0.5505,0.5529,0.5541,0.5555,0.5638,0.569,0.5701,0.5738,0.574,0.5754,0.5791,0.581,0.5909,0.59,0.5913,0.5926,0.6024,0.6025,0.6026,0.5998,0.5997,0.5997,0,0,0,0,0,0,0.5469,0.5538,0.5552,0.5597,0.5637,0.5697,0.5716,0.5736,0.5776,0.5777,0.5822,0.5835,0.5877,0.5906,0.5895,0.5963,0.5968,0.5972,0.5942,0.5942,0.5941,0.5933,0.5919,0,0,0,0,0,0.5466,0.5502,0.556,0.5594,0.5613,0.5661,0.5685,0.571,0.5754,0.5771,0.5811,0.5853,0.5894,0.5919,0.596,0.6002,0.6016,0.6018,0.6017,0.6016,0.6019,0.6043,0.6045,0.603,0.603,0.603,0,0,0.5461,0.5503,0.5523,0.5588,0.5622,0.5659,0.5675,0.5713,0.5741,0.5777,0.5823,0.5853,0.5903,0.5947,0.5969,0.5973,0.6026,0.6017,0.6016,0.602,0.6045,0.6046,0.6047,0.6031,0.6031,0.603,0,0,0.547,0.5505,0.5537,0.5571,0.5622,0.5654,0.5661,0.5719,0.574,0.5787,0.5815,0.5848,0.5917,0.5951,0.5978,0.5999,0.6019,0.6011,0.6008,0.6031,0.6033,0.6034,0.6041,0.6044,0.6014,0.6014,0.6014,0,0.5457,0.5513,0.5551,0.5588,0.5615,0.5649,0.5682,0.5713,0.5775,0.5793,0.5797,0.5884,0.592,0.5973,0.5978,0.5998,0.6008,0.6005,0.6029,0.6031,0.6033,0.604,0.6043,0.6013,0.6013,0.6013,0.6013,0,0.5494,0.5533,0.5552,0.5611,0.5641,0.5675,0.5719,0.5745,0.5767,0.5798,0.5844,0.5889,0.5939,0.5953,0.5975,0.6009,0.601,0.6021,0.6027,0.6032,0.604,0.6044,0.6011,0.6011,0.6012,0.6012,0,0,0.5484,0.5563,0.557,0.5597,0.5656,0.5687,0.5722,0.5771,0.5792,0.5833,0.5865,0.5922,0.5932,0.5962,0.5988,0.6009,0.6023,0.6018,0.6019,0.6017,0.6063,0.6054,0.6057,0.6036,0.6037,0.6037,0.6059,0,0.5501,0.5567,0.5602,0.5653,0.5689,0.5721,0.5752,0.5792,0.5822,0.5857,0.589,0.593,0.5941,0.5959,0.598,0.6017,0.6033,0.6016,0.6066,0.6067,0.6052,0.6061,0.6053,0.607,0.6062,0.6063,0.6063,0,0.553,0.5571,0.5625,0.568,0.5696,0.5723,0.5771,0.5803,0.5849,0.5869,0.5902,0.5928,0.5967,0.597,0.6025,0.6012,0.6035,0.6056,0.6057,0.6063,0.6065,0.6068,0.6077,0.608,0.6068,0.6068,0.6068,0,0.5517,0.5585,0.5627,0.5649,0.5714,0.5732,0.576,0.5806,0.5832,0.5873,0.5891,0.5936,0.5961,0.5996,0.6033,0.6032,0.6084,0.609,0.6102,0.6101,0.6112,0.6111,0.6125,0.6126,0.6126,0.6126,0.6126,0,0.5532,0.5564,0.5622,0.5647,0.5684,0.5724,0.5759,0.579,0.583,0.5861,0.5892,0.5922,0.5969,0.6004,0.6034,0.6074,0.6085,0.6103,0.6111,0.6101,0.6098,0.6116,0.6116,0.6127,0.6127,0.6126,0.6126,0,0.5524,0.5564,0.5611,0.5669,0.5684,0.5708,0.5758,0.5783,0.5815,0.5855,0.5866,0.5916,0.5959,0.5999,0.6057,0.6077,0.6117,0.6127,0.6102,0.6106,0.6116,0.6114,0.6142,0.6148,0.6145,0.6145,0.6145,0,0.5532,0.5557,0.5617,0.564,0.5668,0.5705,0.5733,0.5773,0.58,0.5854,0.5873,0.5919,0.5957,0.6024,0.6065,0.6109,0.612,0.6127,0.6127,0.6116,0.6121,0.6119,0.6121,0.6126,0.6126,0.6126,0.6126,0,0.554,0.5559,0.5597,0.5642,0.5674,0.5711,0.575,0.5767,0.5815,0.5844,0.5888,0.5918,0.5976,0.6021,0.607,0.6099,0.612,0.6125,0.6131,0.6121,0.6105,0.6114,0.61,0.6125,0.6125,0.6125,0.6125,0.6125,0.554,0.5564,0.561,0.5652,0.5685,0.572,0.5747,0.5782,0.5819,0.587,0.5891,0.5936,0.5981,0.6049,0.6077,0.6113,0.6118,0.6125,0.6127,0.6129,0.6127,0.6099,0.6122,0.6122,0.6122,0.6122,0.6122,0,0.5551,0.5582,0.562,0.5673,0.5705,0.5722,0.5766,0.5792,0.5831,0.587,0.5907,0.5958,0.6001,0.6045,0.6091,0.6111,0.6122,0.6122,0.6121,0.6127,0.612,0.611,0.6112,0.6112,0.6112,0.6112,0.6112,0.6112,0.556,0.5601,0.5625,0.5683,0.5714,0.5758,0.5781,0.5814,0.5846,0.5901,0.5937,0.5965,0.6007,0.6056,0.6096,0.6108,0.6124,0.6121,0.6135,0.6127,0.6128,0.6128,0.612,0.6124,0.6124,0.614,0.614,0.614]},{"header":{"parameterUnit":"m.s-1","parameterCategory":1,"la1":30.2991,"la2":30.254,"lo1":-89.0895,"lo2":-89.0444,"dy":0.0017,"dx":0.0017,"nx":28,"ny":28,"refTime":"2025-06-01T21:00:00:Z","depth":0,"parameterNumber":3,"parameterNumberName":"V-component_of_WINDS"},"data":[0,0,0,0,0,0,0,0,0,0,0,0,0,0,0,0,0,0,0,0,0,0,0,0,0,0,0,0,0,0,0,0,0,0,0,0,0,0,0,0,0,0,0,0,0,0,0,0,0,0,0,0,0,0,0,0,0,0,4.4629,4.4629,0,4.4615,4.4615,4.4615,4.4618,4.4619,4.4619,4.4619,4.4601,4.46,4.4599,0,0,0,0,0,0,0,0,0,0,0,0,0,4.4656,4.4656,4.4629,4.4629,4.4629,4.4615,4.4615,4.4615,4.4618,4.4619,4.4619,4.4619,4.4601,4.46,4.4599,0,0,0,0,0,0,0,0,0,0,0,0,0,4.4643,4.4656,4.4629,4.4629,4.4629,4.4615,4.4615,4.4614,4.4618,4.4619,4.4619,4.462,4.4601,4.46,4.4599,4.4583,0,0,4.4596,4.4595,0,0,0,0,0,0,0,0,4.4644,4.4642,4.4629,4.4629,4.4629,4.4619,4.4618,4.4604,4.4618,4.4622,4.4619,4.462,4.4606,4.4605,4.4601,4.4582,4.4582,4.4595,4.4595,4.4594,4.4594,0,0,0,0,0,0,0,4.4645,4.4643,4.4623,4.4629,4.4629,4.4629,4.4627,4.4615,4.4612,4.4622,4.4622,4.4621,4.4606,4.4602,4.4601,4.4581,4.4596,4.4595,4.4594,4.4593,4.4548,4.4548,0,0,0,0,0,0,4.4647,4.4644,4.4624,4.4623,4.4638,4.4628,4.4626,4.4622,4.4612,4.4611,4.462,4.4621,4.4604,4.4602,4.46,4.458,4.4594,4.4593,4.4593,4.4549,4.4548,4.4548,0,0,0,0,0,0,4.4647,4.4645,4.4624,4.4633,4.4631,4.4627,4.4622,4.4621,4.4617,4.4611,4.461,4.4617,4.4604,4.4602,4.4588,4.458,4.4593,4.4592,4.4549,4.4549,4.4548,4.4541,0,0,0,0,0,0,4.4648,4.4645,4.464,4.4633,4.463,4.4613,4.4621,4.4621,4.4616,4.4616,4.4607,4.4606,4.4604,4.4589,4.4586,4.4578,4.4591,4.455,4.4549,4.4548,4.4542,4.454,4.4538,0,0,0,0,0,4.4649,4.4637,4.4639,4.4637,4.4624,4.4613,4.4611,4.461,4.4615,4.4609,4.4605,4.4606,4.4581,4.4588,4.4585,4.4576,4.4551,4.4549,4.4548,4.4542,4.454,4.4538,0,0,0,0,0,0,4.4641,4.4636,4.4639,4.4625,4.4619,4.4613,4.4606,4.4608,4.46,4.46,4.4598,4.4596,4.4582,4.4578,4.4585,4.456,4.4566,4.4565,4.4563,4.4561,4.4559,4.456,4.459,0,0,0,0,0,4.4638,4.4631,4.4627,4.4615,4.4612,4.461,4.4605,4.4605,4.4598,4.4596,4.4591,4.4583,4.4574,4.4567,4.4558,4.4542,4.4539,4.4534,4.4532,4.4531,4.4529,4.4519,4.4517,4.4544,4.4544,4.4544,0,0,4.4631,4.4628,4.4623,4.4613,4.4609,4.46,4.4607,4.4598,4.4591,4.4594,4.458,4.4576,4.4568,4.4553,4.4546,4.4549,4.4521,4.453,4.4529,4.4527,4.4518,4.4515,4.4513,4.4543,4.4543,4.4543,0,0,4.4614,4.4611,4.4601,4.4597,4.4591,4.4589,4.4587,4.4581,4.4579,4.4566,4.4568,4.4559,4.4543,4.4537,4.4531,4.4513,4.4514,4.451,4.4501,4.4491,4.4489,4.4487,4.448,4.4477,4.4508,4.4508,4.4508,0,4.4606,4.4594,4.4595,4.4586,4.4581,4.4585,4.4574,4.4569,4.456,4.4556,4.456,4.454,4.4535,4.4518,4.4513,4.4509,4.4506,4.451,4.449,4.4488,4.4486,4.4478,4.4476,4.4508,4.4508,4.4508,4.4508,0,4.4584,4.4575,4.4568,4.456,4.4555,4.4544,4.4543,4.4537,4.4538,4.4536,4.4522,4.4516,4.4506,4.4502,4.4502,4.4485,4.4487,4.449,4.4497,4.4483,4.4476,4.4473,4.4507,4.4507,4.4507,4.4508,0,0,4.456,4.4554,4.4551,4.4548,4.4542,4.4535,4.4525,4.4516,4.451,4.4504,4.4495,4.4481,4.4485,4.4479,4.4478,4.447,4.4455,4.4474,4.4474,4.447,4.4434,4.4431,4.4428,4.4456,4.4455,4.4455,4.4435,0,4.4541,4.4525,4.4526,4.4509,4.4501,4.4505,4.4496,4.4491,4.4489,4.4481,4.4478,4.4468,4.4474,4.447,4.4462,4.4458,4.4447,4.446,4.4446,4.4445,4.4446,4.4424,4.4421,4.4402,4.4432,4.4432,4.4431,0,4.4517,4.4512,4.4495,4.449,4.4487,4.4479,4.4471,4.4464,4.4458,4.4457,4.4451,4.4451,4.444,4.4448,4.4431,4.444,4.4434,4.4431,4.443,4.4428,4.4436,4.442,4.4396,4.4393,4.4427,4.4428,4.4428,0,4.45,4.4489,4.4477,4.4474,4.4469,4.4463,4.446,4.4455,4.4449,4.4442,4.4439,4.443,4.4424,4.4417,4.4415,4.4421,4.4398,4.4406,4.4396,4.4396,4.4389,4.4389,4.4363,4.4388,4.4388,4.4388,4.4388,0,4.4479,4.4468,4.4469,4.4462,4.445,4.4451,4.4439,4.4436,4.4432,4.4423,4.4426,4.4418,4.4416,4.4407,4.4406,4.4392,4.439,4.4387,4.4387,4.4386,4.4386,4.4381,4.4382,4.4387,4.4387,4.4388,4.4388,0,4.4457,4.4458,4.4445,4.4442,4.4441,4.4432,4.4428,4.4421,4.442,4.4409,4.4406,4.4403,4.4393,4.4391,4.4378,4.4377,4.436,4.4362,4.4363,4.4362,4.4352,4.4352,4.4319,4.4315,4.4344,4.4344,4.4344,0,4.4443,4.4435,4.4431,4.4426,4.4424,4.4416,4.4411,4.4412,4.4406,4.4399,4.4392,4.4383,4.4375,4.4358,4.4354,4.4344,4.4344,4.4334,4.4343,4.4343,4.4343,4.4343,4.4341,4.4331,4.4331,4.4331,4.4331,0,4.4417,4.4418,4.4411,4.4405,4.4399,4.4394,4.4388,4.4384,4.4384,4.4378,4.4368,4.4362,4.435,4.434,4.433,4.4326,4.4328,4.4328,4.4325,4.4324,4.4324,4.4323,4.4356,4.4328,4.4329,4.4329,4.4329,4.4329,4.4397,4.439,4.4387,4.4379,4.4376,4.4371,4.4364,4.4363,4.4355,4.4346,4.4347,4.4336,4.433,4.4318,4.4313,4.4304,4.4307,4.4303,4.4301,4.43,4.4298,4.4327,4.4302,4.4302,4.4302,4.4302,4.4302,0,4.437,4.4369,4.4362,4.4355,4.4349,4.4354,4.4348,4.4342,4.4333,4.4328,4.4321,4.431,4.43,4.4296,4.4286,4.4279,4.428,4.4277,4.4276,4.4275,4.4297,4.43,4.4276,4.4276,4.4276,4.4276,4.4276,4.4276,4.4356,4.4344,4.4345,4.4331,4.4329,4.4319,4.4316,4.4311,4.4307,4.4295,4.4287,4.4286,4.4281,4.4271,4.4262,4.4261,4.4256,4.4252,4.4252,4.4271,4.4274,4.4276,4.4279,4.4252,4.4252,4.4231,4.4231,4.423]}]]